{"data":{"norad_id":61639,"intl_designator":"2024-191U","name":"STARLINK-32341","alt_names":[],"object_type":"PAYLOAD","status":"ACTIVE","operator":null,"country":"US","launch_date":"2024-10-23","launch_site_code":"AFETR","launch_vehicle":null,"mission":null,"orbit_class":"UNKNOWN","rcs_meters":null,"size_class":null,"mass_kg":null,"dimensions":null,"purposes":["comms"],"wikipedia_slug":null,"has_3d_model":false,"image_url":null,"decayed_at":null,"tle_current":{"epoch":"2026-09-20T23:39:14.791968Z","epoch_age_seconds":150087,"freshness":"FRESH","line1":"1 61639U 24191U   26263.98558787  .00000606  00000+0  31546-4 0  9992","line2":"2 61639  43.0016 131.6322 0001211 269.4625  90.6088 15.27580946107408","mean_motion":15.27580946,"eccentricity":0.0001211,"inclination_deg":43.0016,"raan_deg":131.6322,"arg_perigee_deg":269.4625,"mean_anomaly_deg":90.6088,"bstar":3.1546e-5,"rev_number":10740,"period_min":94.26669033616,"perigee_km":482.2153740836,"apogee_km":483.87715266999,"semimajor_km":6861.1832633768,"source":"CELESTRAK","updated_at":"2026-09-22T09:00:49.398518Z"}}}